Miscellaneous Local Product
Issued by NWS Hastings, NE

Home | Current Version | Previous Version | Graphics & Text | Print | Product List | Glossary On
Versions: 1 2 3 4 5 6 7 8 9 10 11 12 13 14 15 16 17 18 19 20 21 22 23 24 25 26 27 28 29 30 31 32 33 34 35 36 37 38 39 40 41 42 43 44 45 46 47 48 49 50
000
AXUS43 KGID 280202
MISGRI

GID CWA HOURLY WEATHER ROUNDUP
NATIONAL WEATHER SERVICE HASTINGS NE
900 PM CDT WED JUL 27 2016

NOTE: "FAIR" INDICATES FEW OR NO CLOUDS BELOW 12,000 FEET WITH NO
SIGNIFICANT WEATHER AND/OR OBSTRUCTIONS TO VISIBILITY.

...SOUTH CENTRAL NEBRASKA...

CITY           SKY/WX    TMP DP  RH WIND       PRES   REMARKS
GRAND ISLAND   CLEAR     77  68  73 E5        30.02S
HASTINGS       CLEAR     77  69  76 N6        30.04R
KEARNEY        PTCLDY    79  18  10 NE5       30.05R
ORD            MOCLDY    71  63  75 NE3       30.02F
YORK           CLEAR     73  68  83 NW6       30.01S
AURORA         CLEAR     74  71  90 N3        30.02R
LEXINGTON      CLEAR     78  69  74 SE5       30.05S
HOLDREGE       MOCLDY    75  71  86 NE3       30.06R
HEBRON         CLEAR     81  67  63 N6        30.00R

...NEBRASKA PANHANDLE...

CITY           SKY/WX    TMP DP  RH WIND       PRES   REMARKS
CHADRON        MOCLDY    76  56  49 NE9       30.11R
ALLIANCE       CLEAR     74  58  57 E13       30.12R
SCOTTSBLUFF    CLEAR     78  55  44 E8        30.11R
SIDNEY         CLOUDY    67  62  84 S24G36    30.16S THUNDER

...WESTERN AND NORTH CENTRAL NEBRASKA...

CITY           SKY/WX    TMP DP  RH WIND       PRES   REMARKS
VALENTINE      CLOUDY    68  59  73 MISG      30.12R
AINSWORTH      MOCLDY    68  66  92 N8G17     30.12R
ONEILL         LGT RAIN  68  63  85 NW16      30.07R
BROKEN BOW     PTCLDY    69  65  86 N6        30.06R
IMPERIAL       PTCLDY    78  59  51 NE9       30.09R
NORTH PLATTE   CLOUDY    74  61  63 NE8       30.09R
MCCOOK         CLOUDY    79  65  62 E9        30.05R

...EASTERN NEBRASKA...

CITY           SKY/WX    TMP DP  RH WIND       PRES   REMARKS
NORFOLK        LGT RAIN  70  63  78 N8G25     30.02R
SO SIOUX CITY  CLOUDY    78  67  68 NW6       29.97R
TEKAMAH        CLEAR     76  69  79 NW8       29.97R
COLUMBUS       PTCLDY    75  63  64 NW6       30.00S
ALBION         CLOUDY    71  62  74 N5        30.05R
OMAHA EPPLEY   CLOUDY    77  71  82 NW6       29.95R
OFFUTT AFB     CLEAR     79  70  73 N7        29.95R
MILLARD        CLEAR     82  70  66 N5        29.96R
LINCOLN        CLEAR     79  69  71 N8        29.98R
NEBRASKA CITY  CLEAR     77  69  77 NW3       29.96R
BEATRICE       CLEAR     76  70  80 NW6       29.97R
FALLS CITY     CLEAR     80  71  74 N3        29.92R

...NORTHERN KANSAS...

CITY           SKY/WX    TMP DP  RH WIND       PRES   REMARKS
GOODLAND       CLEAR     77  64  64 E7        30.06R
HILL CITY      CLEAR     80  70  71 E6        30.01R
NORTON         CLEAR     79  61  53 N9        30.03R
SMITH CENTER   PTCLDY    79  68  69 NE7       30.00R
BELOIT         PTCLDY    81  70  69 CALM      29.97R
HAYS           CLEAR     84  64  51 E5        29.99R
RUSSELL        CLEAR     84  65  52 E7        29.97R
CONCORDIA      CLEAR     82  71  69 CALM      29.98R
SALINA         CLEAR     88  70  55 E6        29.94R HX  93
TOPEKA           N/A     80  73  79 MISG      29.92R



USA.gov is the U.S. government's official web portal to all federal, state and local government web resources and services.